FW5449 Weather Reports


Display with metric or nautical units.
time (UTC)temp
F
wind
direction
speed
MPH
gust
MPH
rain 1hr
in
rain 24hr
in
rain mn
in
humidity
%
barometer
mb
20260504060212 57 183 6.0 11.0 0.00 0.00 0.00 80 1010.2
20260504050435 61 219 7.0 12.0 0.00 0.00 0.00 74 1009.1
20260504050154 61 230 6.0 11.0 0.00 0.00 0.00 73 1009.0
20260504045434 62 193 7.0 13.0 0.00 0.00 0.00 73 1008.8
20260504044933 62 220 7.0 13.0 0.00 0.00 0.00 72 1008.7
20260504044433 63 183 7.0 13.0 0.00 0.00 0.00 71 1008.7
20260504043933 64 250 8.0 13.0 0.00 0.00 0.00 70 1008.7
20260504043434 64 189 9.0 13.0 0.00 0.00 0.00 69 1008.6
20260504042932 65 219 10.0 18.0 0.00 0.00 0.00 68 1008.5
20260504042430 66 231 10.0 18.0 0.00 0.00 0.00 68 1008.3
20260504041928 67 221 10.0 16.0 0.00 0.00 0.00 67 1008.3
20260504041652 67 189 11.0 16.0 0.00 0.00 0.00 66 1008.1
20260504040925 68 206 10.0 16.0 0.00 0.00 0.00 66 1008.0
20260504040421 69 248 9.0 16.0 0.00 0.00 0.00 66 1007.8
20260504040141 69 232 8.0 16.0 0.00 0.00 0.00 65 1007.8
20260504035419 71 251 8.0 16.0 0.00 0.00 0.00 64 1007.6
20260504034918 71 230 9.0 16.0 0.00 0.00 0.00 63 1007.6
20260504034642 72 253 9.0 17.0 0.00 0.00 0.00 61 1007.5
20260504033917 73 252 8.0 17.0 0.00 0.00 0.00 62 1007.3
20260504033637 73 231 5.0 11.0 0.00 0.00 0.00 65 1007.2
20260504032912 74 241 6.0 11.0 0.00 0.00 0.00 65 1007.1
20260504032634 74 247 5.0 11.0 0.00 0.00 0.00 67 1007.1
20260504031902 74 221 4.0 10.0 0.00 0.00 0.00 67 1006.9
20260504031404 74 235 3.0 4.0 0.00 0.00 0.00 66 1006.8
20260504030900 75 229 2.0 4.0 0.00 0.00 0.00 66 1006.9
20260504030358 75 256 3.0 5.0 0.00 0.00 0.00 65 1006.8
20260504025858 75 239 3.0 5.0 0.00 0.00 0.00 64 1006.7
20260504025351 76 239 3.0 5.0 0.00 0.00 0.00 64 1006.8
20260504024850 76 229 2.0 4.0 0.00 0.00 0.00 64 1006.7
20260504024352 77 252 2.0 4.0 0.00 0.00 0.00 64 1006.6
20260504024117 78 221 1.0 2.0 0.00 0.00 0.00 62 1006.7
20260504023347 78 222 1.0 3.0 0.00 0.00 0.00 62 1006.7
20260504022846 78 222 2.0 3.0 0.00 0.00 0.00 62 1006.7
20260504022559 78 230 2.0 3.0 0.00 0.00 0.00 63 1006.7
20260504021838 79 230 1.0 3.0 0.00 0.00 0.00 61 1006.7
20260504021339 80 230 0.0 0.0 0.00 0.00 0.00 57 1006.7
20260504020833 81 322 1.0 3.0 0.00 0.00 0.00 54 1006.7
20260504020330 82 322 2.0 4.0 0.00 0.00 0.00 54 1006.7
20260504020040 82 308 2.0 5.0 0.00 0.00 0.00 53 1006.8
20260504015320 82 335 2.0 6.0 0.00 0.00 0.00 53 1006.8
20260504014821 83 337 2.0 6.0 0.00 0.00 0.00 53 1006.8
20260504014534 83 350 2.0 4.0 0.00 0.00 0.00 53 1006.8
20260504013813 83 8 3.0 5.0 0.00 0.00 0.00 52 1006.8
20260504013311 83 353 3.0 5.0 0.00 0.00 0.00 51 1006.8
20260504012809 84 325 3.0 6.0 0.00 0.00 0.00 49 1006.7
20260504012308 84 337 4.0 8.0 0.00 0.00 0.00 49 1006.8
20260504011808 84 2 4.0 8.0 0.00 0.00 0.00 47 1006.7
20260504011306 84 345 4.0 9.0 0.00 0.00 0.00 48 1006.7
20260504011235 85 337 4.0 11.0 0.00 0.00 0.00 46 1006.7
20260504010902 85 357 4.0 9.0 0.00 0.00 0.00 45 1006.9
20260504005806 85 23 5.0 11.0 0.00 0.00 0.00 45 1006.8
20260504005307 86 22 5.0 9.0 0.00 0.00 0.00 44 1006.8
20260504004805 85 5 5.0 10.0 0.00 0.00 0.00 44 1006.7
20260504004301 86 21 4.0 10.0 0.00 0.00 0.00 43 1006.7
20260504003803 86 18 5.0 10.0 0.00 0.00 0.00 44 1006.8
20260504003302 86 2 5.0 10.0 0.00 0.00 0.00 45 1006.7
20260504003022 86 341 6.0 10.0 0.00 0.00 0.00 43 1006.8
20260504002258 86 36 5.0 10.0 0.00 0.00 0.00 43 1006.8
20260504001758 86 8 5.0 10.0 0.00 0.00 0.00 44 1006.9
20260504001257 86 42 7.0 11.0 0.00 0.00 0.00 42 1006.9
20260504001017 86 12 6.0 11.0 0.00 0.00 0.00 42 1006.8
20260504000256 86 25 6.0 11.0 0.00 0.00 0.00 43 1006.8
20260504000022 86 350 6.0 11.0 0.00 0.00 0.00 44 1006.8
20260503235255 86 29 5.0 10.0 0.00 0.00 0.00 45 1006.8
20260503234753 85 339 6.0 12.0 0.00 0.00 0.00 47 1006.8
20260503234252 85 36 7.0 13.0 0.00 0.00 0.00 46 1006.8
20260503233753 85 346 8.0 13.0 0.00 0.00 0.00 46 1006.9
20260503233250 85 353 7.0 13.0 0.00 0.00 0.00 46 1006.9
20260503232751 86 356 8.0 12.0 0.00 0.00 0.00 44 1007.1
20260503232249 85 23 8.0 13.0 0.00 0.00 0.00 47 1007.1
20260503231750 85 358 7.0 13.0 0.00 0.00 0.00 45 1007.0
20260503231254 85 0 6.0 12.0 0.00 0.00 0.00 46 1007.2
20260503230748 85 0 7.0 12.0 0.00 0.00 0.00 48 1007.2
20260503230250 85 8 6.0 12.0 0.00 0.00 0.00 45 1007.3
20260503225751 85 33 5.0 11.0 0.00 0.00 0.00 50 1007.4
20260503225249 85 350 6.0 10.0 0.00 0.00 0.00 48 1007.5
20260503225007 84 0 7.0 11.0 0.00 0.00 0.00 48 1007.6
20260503224249 85 4 6.0 11.0 0.00 0.00 0.00 48 1007.6
20260503223743 84 23 6.0 11.0 0.00 0.00 0.00 49 1007.7
20260503223243 84 2 6.0 11.0 0.00 0.00 0.00 50 1007.8
20260503222958 86 335 6.0 11.0 0.00 0.00 0.00 47 1008.0
20260503222234 86 322 6.0 10.0 0.00 0.00 0.00 46 1008.1
20260503221732 85 17 5.0 10.0 0.00 0.00 0.00 49 1008.1
20260503221232 85 37 5.0 10.0 0.00 0.00 0.00 47 1008.2
20260503220723 85 349 6.0 11.0 0.00 0.00 0.00 46 1008.2
20260503220446 84 350 6.0 11.0 0.00 0.00 0.00 43 1008.4
20260503215724 84 4 6.0 11.0 0.00 0.00 0.00 44 1008.5
20260503215218 84 11 5.0 10.0 0.00 0.00 0.00 50 1008.5
20260503214719 84 348 4.0 10.0 0.00 0.00 0.00 50 1008.5
20260503214216 84 358 4.0 9.0 0.00 0.00 0.00 49 1008.6
20260503213717 83 0 4.0 9.0 0.00 0.00 0.00 49 1008.5
20260503213215 82 13 4.0 10.0 0.00 0.00 0.00 50 1008.7
20260503212716 83 350 5.0 10.0 0.00 0.00 0.00 49 1008.6
20260503212214 83 13 5.0 9.0 0.00 0.00 0.00 52 1008.6
20260503211711 83 344 5.0 9.0 0.00 0.00 0.00 51 1009.0
20260503211212 83 23 5.0 11.0 0.00 0.00 0.00 49 1008.7
20260503210715 83 352 4.0 11.0 0.00 0.00 0.00 53 1008.8
20260503210212 82 312 5.0 10.0 0.00 0.00 0.00 55 1008.9
20260503205714 82 337 5.0 11.0 0.00 0.00 0.00 56 1008.9
20260503205211 81 42 5.0 11.0 0.00 0.00 0.00 55 1008.9
20260503204932 82 284 5.0 10.0 0.00 0.00 0.00 52 1009.0
20260503204443 81 348 6.0 10.0 0.00 0.00 0.00 56 1009.1
20260503203708 81 358 5.0 10.0 0.00 0.00 0.00 55 1009.2
20260503203210 80 352 4.0 10.0 0.00 0.00 0.00 55 1009.2
20260503202709 80 333 4.0 9.0 0.00 0.00 0.00 51 1009.3
20260503202204 80 354 3.0 8.0 0.00 0.00 0.00 55 1009.6
20260503201705 80 308 3.0 8.0 0.00 0.00 0.00 52 1009.7
20260503201205 79 313 4.0 10.0 0.00 0.00 0.00 54 1009.4
20260503200703 79 24 4.0 10.0 0.00 0.00 0.00 55 1009.5
20260503200201 78 17 4.0 9.0 0.00 0.00 0.00 54 1009.9
20260503195701 77 35 4.0 9.0 0.00 0.00 0.00 58 1009.6
20260503195201 77 21 4.0 8.0 0.00 0.00 0.00 59 1009.7
20260503194701 77 352 4.0 9.0 0.00 0.00 0.00 59 1009.8
20260503194202 77 10 4.0 9.0 0.00 0.00 0.00 61 1010.0
20260503193703 77 9 5.0 9.0 0.00 0.00 0.00 57 1009.9
20260503193417 77 350 4.0 10.0 0.00 0.00 0.00 61 1010.0
20260503192658 76 6 4.0 10.0 0.00 0.00 0.00 62 1010.2
20260503192157 76 354 4.0 9.0 0.00 0.00 0.00 62 1010.2
20260503191655 77 2 4.0 9.0 0.00 0.00 0.00 63 1010.5
20260503191147 76 285 3.0 9.0 0.00 0.00 0.00 65 1010.2
20260503190646 74 350 3.0 9.0 0.00 0.00 0.00 65 1010.3
20260503190146 75 359 3.0 7.0 0.00 0.00 0.00 65 1010.3
20260503185637 75 324 4.0 7.0 0.00 0.00 0.00 64 1010.6
20260503185142 74 320 4.0 7.0 0.00 0.00 0.00 66 1010.6
20260503184629 73 316 3.0 6.0 0.00 0.00 0.00 67 1010.6
20260503184108 73 347 3.0 6.0 0.00 0.00 0.00 66 1010.7
20260503183602 73 327 3.0 6.0 0.00 0.00 0.00 68 1010.8
20260503183101 72 10 3.0 7.0 0.00 0.00 0.00 68 1011.0
20260503182553 73 279 3.0 7.0 0.00 0.00 0.00 69 1010.9
20260503182055 72 327 3.0 8.0 0.00 0.00 0.00 68 1010.9
20260503181555 72 335 4.0 8.0 0.00 0.00 0.00 72 1010.9
20260503181550 72 322 3.0 8.0 0.00 0.00 0.00 72 1011.0
20260503180552 70 231 3.0 8.0 0.00 0.00 0.00 76 1011.0
20260503180055 69 326 2.0 6.0 0.00 0.00 0.00 75 1011.0
20260503175549 71 63 2.0 6.0 0.00 0.00 0.00 72 1010.9
20260503175049 70 292 3.0 6.0 0.00 0.00 0.00 73 1011.0
20260503174548 68 71 3.0 7.0 0.00 0.00 0.00 76 1011.0
20260503174319 69 44 3.0 7.0 0.00 0.00 0.00 75 1011.0
20260503173545 69 335 3.0 7.0 0.00 0.00 0.00 74 1011.0
20260503173047 69 341 2.0 5.0 0.00 0.00 0.00 77 1011.0
20260503172541 68 339 1.0 5.0 0.00 0.00 0.00 75 1011.0
20260503172043 66 160 1.0 4.0 0.00 0.00 0.00 78 1011.0
20260503171538 67 32 3.0 6.0 0.00 0.00 0.00 77 1011.0
20260503171038 67 306 3.0 7.0 0.00 0.00 0.00 78 1011.1
20260503170534 67 9 3.0 7.0 0.00 0.00 0.00 78 1011.2
20260503150404 53 73 0.0 0.0 0.00 0.00 0.00 97 1011.4
20260503140304 49 73 0.0 0.0 0.00 0.00 0.00 96 1011.2
20260503130652 47 98 0.0 1.0 0.00 0.00 0.00 96 1011.0
20260503130145 47 140 0.0 1.0 0.00 0.00 0.00 96 1011.0
20260503110716 49 140 0.0 0.0 0.00 0.00 0.00 94 1011.4
20260503110217 49 140 0.0 0.0 0.00 0.00 0.00 94 1011.4
20260503090405 51 140 0.0 2.0 0.00 0.00 0.00 93 1011.5
20260503081229 52 140 1.0 3.0 0.00 0.00 0.00 93 1011.8
20260503080725 52 208 0.0 0.0 0.00 0.00 0.00 93 1011.6
20260503080215 52 208 0.0 0.0 0.00 0.00 0.00 92 1011.5
20260503072042 53 208 0.0 0.0 0.00 0.00 0.00 92 1011.6
20260503071528 53 208 0.0 0.0 0.00 0.00 0.00 92 1011.6
20260503071026 53 208 0.0 0.0 0.00 0.00 0.00 91 1011.6
20260503071006 54 208 0.0 0.0 0.00 0.00 0.00 91 1011.7
20260503070241 55 208 0.0 0.0 0.00 0.00 0.00 90 1011.6